Parsons, KS

2:32 PM CDT on April 27, 2017 (GMT -0500)
Tri-City

Weather History for KPPF - November, 2012

Change the Weather History Date:

Tuesday, November 20, 2012

  Actual Average Record
Temperature  
Mean Temperature 52 °F -  
Max Temperature 68 °F 55 °F 77 °F (2007)
Min Temperature 35 °F 35 °F 16 °F (2000)
Degree Days  
Heating Degree Days 14    
Growing Degree Days 2 (Base 50)    
Moisture  
Dew Point 39 °F    
Average Humidity 79    
Maximum Humidity 97    
Minimum Humidity 36    
Precipitation  
Precipitation 0.00 in - - ()
Sea Level Pressure  
Sea Level Pressure 30.19 in    
Wind  
Wind Speed 1 mph (NNW)    
Max Wind Speed 7 mph    
Max Gust Speed -    
Visibility 6 miles    
Events Fog    
Averages and records for this station are not official NWS values.
T = Trace of Precipitation, MM = Missing Value Source: NWS Daily Summary

Daily Weather History Graph

Daily Weather History Graph

Search for Another Location

Airport or City:

Trip Planner

Search our weather history database for the weather conditions in past years. The results will help you decide how hot, cold, wet, or windy it might be!

Date:

Astronomy

Nov. 20, 2012 Rise Set
Actual Time 7:07 AM CST 5:08 PM CST
Civil Twilight 6:38 AM CST 5:36 PM CST
Nautical Twilight 6:07 AM CST 6:08 PM CST
Astronomical Twilight 5:36 AM CST 6:39 PM CST
Moon 12:46 PM CST (11/20) No Moon Set
Length of Visible Light 10h 57m
Length of Day
10h 01m
First Quarter, 51% of the Moon is Illuminated
Nov 20
First Quarter
Nov 28
Full
Dec 6
Last Quarter
Dec 13
New
Dec 19
First Quarter

Hourly Weather History & Observations

Time (CST) Temp. Dew Point Humidity Pressure Visibility Wind Dir Wind Speed Gust Speed Precip Events Conditions
12:52 AM 43.0 °F 41.0 °F 93% 30.15 in 4.0 mi Calm Calm - N/A   Clear
1:48 AM 41.0 °F 39.2 °F 93% 30.15 in 2.5 mi Calm Calm - N/A   Clear
2:15 AM 41.0 °F 39.2 °F 93% 30.15 in 1.8 mi Calm Calm - N/A   Clear
2:28 AM 39.2 °F 37.4 °F 93% 30.16 in 3.0 mi Calm Calm - N/A   Clear
2:50 AM 39.2 °F 37.4 °F 93% 30.16 in 2.5 mi Calm Calm - N/A   Partly Cloudy
2:52 AM 39.0 °F 37.0 °F 93% 30.16 in 2.5 mi Calm Calm - N/A   Partly Cloudy
3:02 AM 39.2 °F 37.4 °F 93% 30.16 in 1.8 mi Calm Calm - N/A   Mostly Cloudy
3:05 AM 39.2 °F 37.4 °F 93% 30.16 in 0.8 mi Calm Calm - N/A   Mist
3:52 AM 37.9 °F 36.0 °F 93% 30.15 in 0.5 mi Calm Calm - N/A Fog Fog
4:52 AM 36.0 °F 35.1 °F 97% 30.17 in 0.2 mi Calm Calm - N/A Fog Fog
5:52 AM 35.1 °F 34.0 °F 96% 30.18 in 0.2 mi Calm Calm - N/A Fog Fog
6:52 AM 37.0 °F 36.0 °F 96% 30.20 in 0.2 mi Calm Calm - N/A Fog Fog
7:52 AM 39.0 °F 37.0 °F 93% 30.22 in 0.2 mi Calm Calm - N/A Fog Fog
8:18 AM 42.8 °F 39.2 °F 87% 30.22 in 1.2 mi Calm Calm - N/A   Mostly Cloudy
8:21 AM 42.8 °F 41.0 °F 93% 30.22 in 2.0 mi Calm Calm - N/A   Mostly Cloudy
8:26 AM 44.6 °F 42.8 °F 93% 30.22 in 3.0 mi Calm Calm - N/A   Scattered Clouds
8:52 AM 46.9 °F 44.1 °F 90% 30.23 in 9.0 mi NNW 4.6 mph - N/A   Clear
10:52 AM 62.1 °F 43.0 °F 50% 30.24 in 10.0 mi Variable 3.5 mph - N/A   Clear
11:52 AM 64.0 °F 42.1 °F 45% 30.22 in 10.0 mi NNW 6.9 mph - N/A   Clear
12:52 PM 64.9 °F 42.1 °F 43% 30.20 in 10.0 mi Variable 3.5 mph - N/A   Clear
1:52 PM 66.0 °F 41.0 °F 40% 30.19 in 10.0 mi NW 5.8 mph - N/A   Clear
2:52 PM 68.0 °F 39.9 °F 36% 30.17 in 10.0 mi NNW 4.6 mph - N/A   Clear
3:52 PM 68.0 °F 39.9 °F 36% 30.19 in 10.0 mi NW 4.6 mph - N/A   Clear
4:52 PM 64.0 °F 39.9 °F 41% 30.19 in 10.0 mi Calm Calm - N/A   Clear
5:52 PM 48.9 °F 39.9 °F 71% 30.21 in 10.0 mi Calm Calm - N/A   Clear
6:52 PM 46.9 °F 39.9 °F 77% 30.22 in 10.0 mi Calm Calm - N/A   Clear
7:52 PM 42.1 °F 37.9 °F 85% 30.22 in 10.0 mi Calm Calm - N/A   Clear
8:52 PM 39.9 °F 36.0 °F 86% 30.23 in 10.0 mi Calm Calm - N/A   Clear
9:52 PM 39.9 °F 36.0 °F 86% 30.23 in 10.0 mi Calm Calm - N/A   Clear
10:52 PM 37.0 °F 34.0 °F 89% 30.23 in 10.0 mi Calm Calm - N/A   Clear
11:52 PM 37.0 °F 34.0 °F 89% 30.24 in 10.0 mi Calm Calm - N/A   Clear